Home   Weather   Salalah   Past weeks

Flag for Oman Past Weather in Salalah, Oman — Yesterday and Last 2 Weeks

Now
82 °F

Passing clouds.


Feels Like: 91 °F
Forecast: 83 / 86 °F
Wind: 5 mph from Southeast

Location: Salalah Airport

Current Time: May 1, 2017 at 12:50:04 am

Latest Report: Apr 30, 2017 at 11:50 pm


Visibility: N/A

Pressure: 29.89 "Hg

Humidity: 84%

Dew Point: 77 °F

Location of SalalahLocation

Past Weather in Salalah — Graph

°F

Salalah Temperature Yesterday

Maximum temperature yesterday: 86 °F (at 9:50 am)
Minimum temperature yesterday: 79 °F (at 10:50 am)
Average temperature yesterday: 83 °F

High & Low Weather Summary for the Past Weeks

 TemperatureHumidityPressure
High100 °F (Apr 22, 12:50 pm)94% (Apr 30, 10:50 am)29.95 "Hg (Apr 30, 10:50 am)
Low73 °F (Apr 23, 6:50 am)5% (Apr 22, 9:50 am)29.74 "Hg (Apr 16, 2:50 pm)
Average84 °F67%29.85 "Hg
* Reported Apr 15 10:50 pm — Apr 30 10:50 pm, Salalah, Weather by CustomWeather, © 2017

Note: Actual official high and low records may vary slightly from our data, if they occured in-between our weather recording intervals... More about our weather records

Advertising

Salalah Weather History for the Previous 24 Hours

Scroll right to see more
 ConditionsComfort  
Time TempWeatherWind HumidityBarometerVisibility
10:50 pm
Sun, Apr 30
82 °FPassing clouds.5 mph84%29.89 "HgN/A
9:50 pm82 °FPassing clouds.7 mph84%29.89 "HgN/A
8:50 pm82 °FPassing clouds.6 mph84%29.89 "HgN/A
7:50 pm82 °FPassing clouds.6 mph84%29.86 "HgN/A
6:50 pm82 °FPassing clouds.6 mph84%29.86 "HgN/A
5:50 pm84 °FScattered clouds.8 mph79%29.83 "HgN/A
4:50 pm84 °FScattered clouds.9 mph74%29.83 "HgN/A
3:50 pm84 °FScattered clouds.9 mph70%29.86 "HgN/A
2:50 pm86 °FScattered clouds.12 mph75%29.86 "HgN/A
1:50 pm84 °FScattered clouds.10 mph79%29.86 "HgN/A
12:50 pm84 °FPartly sunny.8 mph79%29.89 "HgN/A
11:50 am81 °FBroken clouds.8 mph89%29.92 "HgN/A
10:50 am79 °FMore clouds than sun.17 mph94%29.92 "HgN/A
9:50 am86 °FPartly sunny.10 mph75%29.92 "HgN/A
8:50 am84 °FPartly sunny.6 mph74%29.92 "HgN/A
7:50 am82 °FPartly sunny.5 mph79%29.89 "HgN/A
6:50 am81 °FPartly sunny.7 mph84%29.89 "HgN/A
5:50 am82 °FPassing clouds.3 mph74%29.86 "HgN/A
4:50 am82 °FPassing clouds.7 mph74%29.86 "HgN/A
3:50 am82 °FPassing clouds.2 mph79%29.86 "HgN/A
2:50 am82 °FPassing clouds.5 mph74%29.86 "HgN/A
1:50 am82 °FPassing clouds.6 mph74%29.86 "HgN/A
12:50 am82 °FPassing clouds.6 mph74%29.89 "HgN/A
Weather by CustomWeather, © 2017

See weather overviewHow to use our weather pages